Simultaneous Nadir Overpasses (SNOs) Predictions

Prediction of SNOs between FY3D and METOP-C Satellite Orbit:

Table of predicted SNOs for the next 14.0 days since TLE Epoch: 5/18/2019
Index Date (FY3D) Time (FY3D) Lat,Lon (FY3D) SZA (FY3D ) Date (METOP-C) Time (METOP-C) Lat,Lon (METOP-C) SZA (METOP-C ) Distance(km) Time Diff (sec)
1 05/31/2019 06:40:06 73.80, 70.70 52.05 05/31/2019 06:41:11 73.75, 73.89 51.86 99.13 65
2 05/31/2019 07:30:49 -73.76,-121.90 128.00 05/31/2019 07:31:55 -73.70,-118.91 128.20 93.24 66
3 05/31/2019 08:21:29 73.49, 46.05 51.70 05/31/2019 08:22:38 73.48, 47.93 51.60 59.35 69
4 05/31/2019 09:12:12 -73.46,-146.56 128.35 05/31/2019 09:13:22 -73.43,-144.87 128.46 53.56 70
5 05/31/2019 10:02:53 73.23, 21.26 51.41 05/31/2019 10:04:05 73.21, 21.98 51.34 23.32 72
6 05/31/2019 10:53:36 -73.20,-171.35 128.64 05/31/2019 10:54:49 -73.16,-170.81 128.71 18.05 73
7 05/31/2019 11:44:18 73.02, -3.66 51.17 05/31/2019 11:45:30 73.04, -3.73 51.18 3.11 72
8 05/31/2019 12:35:02 -73.04, 163.62 128.82 05/31/2019 12:36:13 -73.04, 163.59 128.83 0.99 71
9 05/31/2019 13:25:46 73.02, -29.01 51.15 05/31/2019 13:26:51 73.02, -29.11 51.15 3.36 65
10 05/31/2019 14:16:30 -73.03, 138.26 128.84 05/31/2019 14:17:34 -73.02, 138.21 128.86 2.37 64
11 05/31/2019 15:07:16 73.06, -54.47 51.19 05/31/2019 15:08:12 73.05, -54.39 51.17 2.92 56
12 05/31/2019 15:57:59 -73.03, 112.91 128.86 05/31/2019 15:58:55 -73.05, 112.93 128.84 2.99 56
13 05/31/2019 16:48:45 73.05, -79.83 51.17 05/31/2019 16:49:34 73.03, -79.77 51.14 2.68 49
14 05/31/2019 17:39:28 -73.02, 87.56 128.88 05/31/2019 17:40:17 -73.03, 87.55 128.87 1.66 49
15 05/31/2019 18:30:14 73.04,-105.18 51.15 05/31/2019 18:30:56 73.01,-105.15 51.11 3.27 42
16 05/31/2019 19:20:57 -73.01, 62.20 128.89 05/31/2019 19:21:39 -73.01, 62.17 128.90 1.14 42
17 05/31/2019 20:11:42 72.98,-130.43 51.08 05/31/2019 20:12:18 72.99,-130.53 51.09 3.57 36
18 05/31/2019 21:02:26 -73.00, 36.85 128.91 05/31/2019 21:03:01 -72.99, 36.79 128.92 2.14 35
19 05/31/2019 21:53:12 73.03,-155.89 51.11 05/31/2019 21:53:39 73.03,-155.81 51.10 2.79 27
20 05/31/2019 22:43:55 -72.99, 11.50 128.93 05/31/2019 22:44:23 -72.97, 11.41 128.95 3.55 28
21 05/31/2019 23:34:41 73.02, 178.75 51.09 05/31/2019 23:35:01 73.01, 178.81 51.08 2.30 20




NCC Satellite Simultaneous Nadir Overpasses (SNOs) Prediction Service
